Regional Weather Roundup
Issued by NWS

Home | Current Version | Previous Version | Graphics & Text | Print | Product List | Glossary On
Versions: 1 2 3 4 5 6 7 8 9 10 11 12 13 14 15 16 17 18 19 20 21 22 23 24 25 26 27 28 29 30 31 32 33 34 35 36 37 38 39 40 41 42 43 44 45 46 47 48 49 50
000
ASUS45 KBOI 310810
RWRID

IDAHO REGIONAL WEATHER ROUNDUP
NATIONAL WEATHER SERVICE BOISE ID
200 AM MDT FRI JUL 31 2015

NOTE: "FAIR" INDICATES FEW OR NO CLOUDS BELOW 12000 FEET
WITH NO SIGNIFICANT WEATHER AND/OR OBSTRUCTIONS TO VISIBILITY

IDZ012-014-310900-
SOUTHWEST IDAHO


CITY           SKY/WX    TMP DP  RH WIND       PRES   REMARKS
BOISE          CLEAR     74  35  24 SE10      30.12S
CALDWELL       CLEAR     61  45  55 CALM      30.12R
MOUNTAIN HOME  CLEAR     62  30  29 S1        30.13R
$$

IDZ016-017-310900-
SOUTHCENTRAL IDAHO


CITY           SKY/WX    TMP DP  RH WIND       PRES   REMARKS
BURLEY         PTCLDY    58  39  49 S3        30.22S
JEROME         CLEAR     61  37  41 E8        30.22S
TWIN FALLS     PTCLDY    64  29  26 S10       30.19F
$$

IDZ019>023-310900-
SOUTHEAST IDAHO


CITY           SKY/WX    TMP DP  RH WIND       PRES   REMARKS
IDAHO FALLS    CLEAR     48  43  82 N3        30.28S
POCATELLO      CLEAR     55  36  48 NW5       30.26S
REXBURG        CLEAR     53  44  71 NE5       30.30S
$$

IDZ006-010-011-018-031-032-310900-
CENTRAL IDAHO MOUNTAINS


CITY           SKY/WX    TMP DP  RH WIND       PRES   REMARKS
MCCALL         CLEAR     56  39  53 CALM      30.29S
HAILEY         CLEAR     59  34  38 NW9       30.33F
STANLEY          N/A     48  30  49 SE6       30.43S
SALMON         CLEAR     55  45  67 CALM      30.26R
CHALLIS        CLEAR     60  39  45 CALM      30.31R
$$

IDZ002-004-006-007-026-310900-
NORTHERN IDAHO


CITY           SKY/WX    TMP DP  RH WIND       PRES   REMARKS
LEWISTON       CLEAR     74  31  20 S5        30.04S
LOWELL           N/A     61  51  70 NW3       30.15R
COEUR D`ALENE  CLEAR     61  43  51 E7        30.10S
MULLAN PASS    CLEAR     69  26  20 CALM      30.36S
$$


USA.gov is the U.S. government's official web portal to all federal, state and local government web resources and services.